Aurora, NE

5:38 PM CST on February 05, 2016 (GMT -0600)
Aurora Municipal

Weather History for KAUH - March, 2013

Change the Weather History Date:

Saturday, March 9, 2013

  Actual Average Record
Temperature  
Mean Temperature 48 °F -  
Max Temperature 64 °F 49 °F 79 °F (1977)
Min Temperature 32 °F 24 °F 5 °F (1998)
Degree Days  
Heating Degree Days 17    
Moisture  
Dew Point 45 °F    
Average Humidity 95    
Maximum Humidity 100    
Minimum Humidity 67    
Precipitation  
Precipitation 0.36 in - - ()
Sea Level Pressure  
Sea Level Pressure 29.65 in    
Wind  
Wind Speed 17 mph (SE)    
Max Wind Speed 30 mph    
Max Gust Speed 39 mph    
Visibility 6 miles    
Events Fog , Rain , Snow , Thunderstorm    
Averages and records for this station are not official NWS values.
T = Trace of Precipitation, MM = Missing Value Source: NWS Daily Summary

Daily Weather History Graph

Daily Weather History Graph

Search for Another Location

Airport or City:

Trip Planner

Search our weather history database for the weather conditions in past years. The results will help you decide how hot, cold, wet, or windy it might be!

Date:

Astronomy

Mar. 09, 2013 Rise Set
Actual Time 6:52 AM CST 6:32 PM CST
Civil Twilight 6:25 AM CST 6:59 PM CST
Nautical Twilight 5:53 AM CST 7:31 PM CST
Astronomical Twilight 5:21 AM CST 8:03 PM CST
Moon 5:18 AM CST (3/9) 4:35 PM CST (3/9)
Length of Visible Light 12h 34m
Length of Day
11h 39m
Waning Crescent, 5% of the Moon is Illuminated
Mar 9
Waning Crescent
Mar 11
New
Mar 19
First Quarter
Mar 27
Full
Apr 2
Last Quarter

Hourly Weather History & Observations

Time (CST) Temp. Windchill Dew Point Humidity Pressure Visibility Wind Dir Wind Speed Gust Speed Precip Events Conditions
12:15 AM 48.4 °F - 48.4 °F 100% 29.79 in 4.0 mi South 18.4 mph 25.3 mph N/A   Overcast
12:35 AM 48.4 °F - 48.4 °F 100% 29.79 in 5.0 mi South 21.9 mph 26.5 mph N/A   Overcast
12:55 AM 48.0 °F - 48.0 °F 100% 29.79 in 3.0 mi SSE 18.4 mph 26.5 mph 0.01 in   Overcast
1:15 AM 47.7 °F - 47.7 °F 100% 29.79 in 2.5 mi SSE 18.4 mph 27.6 mph N/A   Overcast
1:35 AM 47.5 °F - 47.5 °F 100% 29.78 in 2.5 mi SSE 16.1 mph 25.3 mph N/A   Overcast
1:55 AM 47.3 °F - 47.3 °F 100% 29.77 in 2.0 mi SE 17.3 mph - N/A   Light Drizzle
2:15 AM 47.3 °F - 47.3 °F 100% 29.76 in 2.5 mi SSE 16.1 mph - N/A   Overcast
2:35 AM 46.9 °F - 46.9 °F 100% 29.74 in 3.0 mi SSE 17.3 mph 20.7 mph N/A   Overcast
3:15 AM 46.9 °F - 46.9 °F 100% 29.72 in 5.0 mi SSE 17.3 mph - N/A   Overcast
3:35 AM 47.3 °F - 47.3 °F 100% 29.71 in 5.0 mi SSE 13.8 mph - N/A   Overcast
3:55 AM 47.3 °F - 47.3 °F 100% 29.69 in 7.0 mi SE 15.0 mph 19.6 mph N/A   Overcast
4:15 AM 47.3 °F - 47.3 °F 100% 29.69 in 7.0 mi SSE 15.0 mph - N/A   Overcast
4:35 AM 47.3 °F - 47.3 °F 100% 29.69 in 4.0 mi SSE 13.8 mph - N/A   Overcast
4:55 AM 47.3 °F - 47.3 °F 100% 29.68 in 4.0 mi SSE 12.7 mph - N/A   Overcast
5:15 AM 48.0 °F - 48.0 °F 100% 29.68 in 4.0 mi SSE 13.8 mph 17.3 mph N/A   Overcast
5:35 AM 48.4 °F - 48.4 °F 100% 29.67 in 4.0 mi SSE 13.8 mph - N/A   Overcast
5:55 AM 48.7 °F - 48.7 °F 100% 29.66 in 3.0 mi SSE 15.0 mph 20.7 mph N/A   Overcast
6:15 AM 48.6 °F - 48.6 °F 100% 29.66 in 2.0 mi SSE 13.8 mph 20.7 mph N/A   Overcast
6:35 AM 48.4 °F - 48.4 °F 100% 29.65 in 1.2 mi SSE 13.8 mph - N/A   Overcast
6:55 AM 48.2 °F - 48.2 °F 100% 29.64 in 1.0 mi SE 12.7 mph - N/A   Overcast
7:15 AM 48.2 °F - 48.2 °F 100% 29.62 in 0.8 mi SE 13.8 mph - N/A   Overcast
7:35 AM 48.2 °F - 48.2 °F 100% 29.63 in 0.8 mi SE 11.5 mph - N/A   Overcast
7:55 AM 48.2 °F - 48.2 °F 100% 29.60 in 0.5 mi SE 10.4 mph - N/A Fog Fog
8:15 AM 48.2 °F - 48.2 °F 100% 29.63 in 0.2 mi SSE 6.9 mph - N/A Fog Fog
8:35 AM 48.4 °F - 48.4 °F 100% 29.61 in 0.2 mi SE 9.2 mph - N/A Fog Fog
8:55 AM 48.7 °F - 48.7 °F 100% 29.62 in 0.2 mi SE 9.2 mph - N/A Fog Fog
9:15 AM 49.1 °F - 49.1 °F 100% 29.61 in 0.2 mi ESE 6.9 mph - N/A Fog Fog
9:35 AM 49.3 °F - 49.3 °F 100% 29.60 in 0.2 mi East 4.6 mph - N/A Fog Fog
9:55 AM 50.0 °F - 50.0 °F 100% 29.60 in 0.2 mi East 6.9 mph - N/A Fog Fog
10:15 AM 51.6 °F - 51.6 °F 100% 29.60 in 1.0 mi East 5.8 mph - N/A   Overcast
10:35 AM 53.8 °F - 53.8 °F 100% 29.59 in 2.5 mi SE 8.1 mph - N/A   Overcast
10:55 AM 55.6 °F - 55.6 °F 100% 29.59 in 4.0 mi South 11.5 mph - N/A   Overcast
11:15 AM 59.9 °F - 57.9 °F 93% 29.58 in 10.0 mi South 18.4 mph 25.3 mph N/A   Scattered Clouds
11:35 AM 60.3 °F - 55.8 °F 85% 29.59 in 10.0 mi South 16.1 mph 21.9 mph N/A   Mostly Cloudy
11:55 AM 59.9 °F - 54.5 °F 82% 29.58 in 10.0 mi SSW 16.1 mph 25.3 mph N/A   Mostly Cloudy
12:15 PM 59.9 °F - 54.5 °F 82% 29.58 in 10.0 mi SSW 15.0 mph 20.7 mph N/A   Overcast
12:35 PM 62.1 °F - 54.9 °F 77% 29.57 in 10.0 mi South 15.0 mph 21.9 mph N/A   Mostly Cloudy
12:55 PM 60.4 °F - 53.4 °F 78% 29.57 in 10.0 mi South 15.0 mph 23.0 mph N/A   Mostly Cloudy
1:15 PM 61.3 °F - 53.4 °F 75% 29.55 in 10.0 mi South 17.3 mph 24.2 mph N/A   Overcast
1:35 PM 62.1 °F - 54.0 °F 75% 29.53 in 10.0 mi South 17.3 mph 23.0 mph N/A   Mostly Cloudy
1:55 PM 62.6 °F - 54.3 °F 74% 29.51 in 10.0 mi South 18.4 mph 26.5 mph N/A   Clear
2:15 PM 63.5 °F - 54.3 °F 72% 29.51 in 10.0 mi South 16.1 mph 28.8 mph N/A   Clear
2:35 PM 64.9 °F - 53.6 °F 67% 29.51 in 10.0 mi South 18.4 mph 24.2 mph N/A   Clear
2:55 PM 63.0 °F - 53.6 °F 71% 29.50 in 10.0 mi South 12.7 mph - N/A   Mostly Cloudy
3:15 PM 61.9 °F - 54.1 °F 76% 29.49 in 10.0 mi South 18.4 mph 25.3 mph N/A Rain Light Rain
3:35 PM 54.3 °F - 46.2 °F 74% 29.52 in 10.0 mi NNW 23.0 mph 31.1 mph N/A   Overcast
3:55 PM 43.7 °F 34.1 °F 41.5 °F 92% 29.53 in 10.0 mi North 26.5 mph 32.2 mph N/A   Overcast
4:15 PM 41.4 °F 30.7 °F 39.7 °F 94% 29.59 in 10.0 mi NNW 27.6 mph 33.4 mph N/A Thunderstorm Thunderstorm
4:35 PM 40.1 °F 30.7 °F 40.1 °F 100% 29.58 in 2.5 mi North 19.6 mph 33.4 mph 0.07 in Rain Rain
4:55 PM 39.7 °F 29.7 °F 39.7 °F 100% 29.58 in 10.0 mi North 21.9 mph 31.1 mph 0.08 in Rain Light Rain
5:15 PM 38.8 °F 27.8 °F 38.8 °F 100% 29.60 in 4.0 mi North 25.3 mph 29.9 mph 0.02 in Rain Rain
5:35 PM 38.3 °F 27.6 °F 38.3 °F 100% 29.61 in 10.0 mi North 23.0 mph 28.8 mph 0.03 in Rain Light Rain
5:55 PM 37.4 °F 25.6 °F 37.0 °F 99% 29.64 in 10.0 mi North 26.5 mph 34.5 mph 0.03 in   Overcast
6:15 PM 36.3 °F 24.4 °F 36.3 °F 100% 29.66 in 1.5 mi NNW 25.3 mph 29.9 mph 0.12 in Snow Light Snow
6:35 PM 35.1 °F 23.5 °F 35.1 °F 100% 29.66 in 2.5 mi North 21.9 mph 39.1 mph 0.20 in Snow Light Snow
6:55 PM 34.5 °F 21.5 °F 34.5 °F 100% 29.66 in 4.0 mi North 27.6 mph 34.5 mph 0.24 in Rain Light Rain
7:15 PM 34.0 °F 20.8 °F 34.0 °F 100% 29.67 in 10.0 mi North 27.6 mph 38.0 mph N/A   Overcast
7:35 PM 34.0 °F 20.8 °F 34.0 °F 100% 29.69 in 10.0 mi North 27.6 mph 39.1 mph N/A   Overcast
7:55 PM 33.8 °F 21.0 °F 33.8 °F 100% 29.71 in 10.0 mi North 25.3 mph 33.4 mph N/A   Overcast
8:15 PM 33.8 °F 21.3 °F 32.9 °F 96% 29.72 in 10.0 mi North 24.2 mph 32.2 mph N/A   Overcast
8:35 PM 33.4 °F 20.3 °F 32.5 °F 96% 29.72 in 10.0 mi North 26.5 mph 29.9 mph N/A   Overcast
8:55 PM 33.3 °F 21.2 °F 32.0 °F 95% 29.75 in 10.0 mi North 21.9 mph 35.7 mph N/A   Overcast
9:15 PM 33.1 °F 19.6 °F 32.0 °F 96% 29.75 in 10.0 mi North 27.6 mph 35.7 mph N/A   Overcast
9:35 PM 32.9 °F 19.3 °F 31.8 °F 96% 29.75 in 10.0 mi North 27.6 mph 34.5 mph N/A   Overcast
9:55 PM 32.9 °F 20.1 °F 31.8 °F 96% 29.74 in 10.0 mi North 24.2 mph 39.1 mph N/A   Overcast
10:15 PM 32.9 °F 19.6 °F 32.0 °F 96% 29.76 in 7.0 mi North 26.5 mph 34.5 mph N/A   Overcast
10:35 PM 32.5 °F 19.4 °F 31.6 °F 96% 29.76 in 7.0 mi North 25.3 mph 36.8 mph N/A   Overcast
10:55 PM 32.4 °F 18.4 °F 31.8 °F 98% 29.77 in 4.0 mi North 28.8 mph 34.5 mph N/A   Overcast
11:15 PM 32.2 °F 18.1 °F 31.6 °F 98% 29.76 in 4.0 mi North 28.8 mph 35.7 mph N/A   Overcast
11:35 PM 32.0 °F 17.6 °F 31.6 °F 99% 29.77 in 4.0 mi North 29.9 mph 34.5 mph N/A   Overcast
11:55 PM 32.0 °F 18.4 °F 31.3 °F 97% 29.77 in 3.0 mi North 26.5 mph 39.1 mph N/A Snow Light Snow